Theta_e
313 314 314 314 314 315 316 317 316 316 318 320 320 319 318 318 319 321 325 328 327 325 326 327 326 326 328 328 327 330 332 334 333 332 333 335 336 337 338 337 336 335 335 334 333 341 337 336 336 337 339 335 331 330 329 330 330 330 329 330 326 325 323 325 327 328 328 327 329 331 333 337 339 339 338 338 338 338 338 337 336 336 335 334 333
312 311 312 312 313 314 315 315 318 314 315 317 318 320 320 319 318 319 322 327 326 326 327 327 327 327 327 326 328 328 329 329 329 331 333 334 335 336 337 338 336 335 337 334 336 335 334 335 337 336 336 338 336 333 330 335 330 328 328 326 327 324 321 324 330 327 323 325 326 324 327 331 336 335 336 336 337 337 337 336 336 335 334 334 334
308 309 310 311 312 313 313 313 313 314 314 314 316 317 319 320 319 318 320 323 328 329 329 328 328 328 327 328 328 328 330 331 331 335 336 334 333 335 336 336 336 335 335 336 333 332 334 336 337 337 335 339 337 335 334 332 328 326 326 325 323 325 324 327 330 326 321 323 327 326 320 324 327 330 333 335 337 337 336 336 336 335 334 334 334
306 307 308 309 310 310 311 311 311 313 314 313 315 316 317 318 319 319 320 320 322 328 330 328 328 329 329 329 330 330 329 334 333 334 334 335 334 335 336 336 337 336 336 335 335 334 334 336 337 338 337 337 336 335 333 335 331 327 327 326 324 321 321 321 329 329 327 325 320 318 320 321 317 324 326 330 336 336 336 335 336 335 335 335 334
306 306 307 308 308 309 310 312 310 311 311 313 315 315 318 316 317 320 320 320 321 328 330 328 327 328 329 330 332 329 329 328 329 330 332 334 336 334 335 336 337 337 336 335 336 335 335 336 337 339 338 337 335 334 334 335 334 333 329 327 324 321 320 319 321 329 329 329 325 321 318 316 316 320 326 324 333 335 336 336 336 335 335 335 334
306 306 306 307 307 308 309 309 309 309 310 311 313 315 315 315 316 316 320 321 321 324 329 329 327 324 325 323 326 325 324 324 325 327 330 332 333 334 335 336 337 336 336 336 336 336 334 336 337 339 340 339 337 334 334 333 333 331 332 329 327 324 322 319 318 322 330 331 330 328 325 318 317 320 326 318 328 333 335 338 337 336 336 334 334
304 305 305 306 306 306 307 308 308 309 309 310 311 312 312 313 313 313 314 320 322 322 325 329 326 326 325 325 323 324 325 327 327 329 331 332 332 332 334 336 336 335 335 336 336 335 333 335 336 338 340 339 339 334 332 332 332 332 332 329 329 328 322 319 319 319 324 328 331 330 334 328 328 327 320 319 319 325 331 334 336 337 336 335 334
303 303 304 305 306 306 307 308 308 308 309 309 310 311 311 310 311 311 312 315 316 319 321 324 322 325 327 325 326 322 324 325 327 329 330 332 332 332 333 334 336 336 335 335 336 335 335 334 335 336 336 336 339 336 332 330 331 331 331 330 329 329 324 321 319 317 318 321 328 329 329 329 330 329 327 326 322 320 324 330 335 337 336 335 334
303 302 303 305 305 305 306 307 308 308 309 308 308 309 310 310 311 311 311 313 313 314 317 319 323 322 320 326 325 326 327 327 328 328 328 330 331 332 332 332 333 335 335 334 335 335 337 335 334 334 334 334 338 337 335 333 330 329 328 326 327 328 326 323 321 318 319 321 322 325 325 325 326 327 328 325 320 320 321 327 330 336 336 336 335
302 302 303 305 305 305 306 306 306 307 307 311 308 309 309 309 310 310 310 311 313 313 313 314 316 323 320 319 322 323 326 327 327 327 328 329 331 332 331 331 331 333 334 334 334 335 335 335 334 333 333 333 336 335 335 335 332 330 329 328 327 325 326 326 323 321 321 322 324 325 326 322 324 323 324 325 323 323 321 326 330 330 329 333 337
301 301 303 304 304 304 305 304 305 305 306 307 307 308 308 308 309 308 309 310 312 312 312 312 313 315 319 320 319 319 320 324 326 327 329 330 330 330 330 330 331 333 334 333 333 334 334 335 334 333 333 335 335 333 333 335 335 333 331 329 328 326 325 324 324 323 324 323 323 323 324 325 324 324 323 326 324 320 320 323 329 332 332 332 335
301 301 302 302 303 303 304 304 304 304 305 305 306 307 308 308 308 307 308 309 310 312 311 311 312 313 315 316 319 320 320 321 323 325 328 329 330 330 330 330 330 331 332 333 333 333 333 334 335 334 334 333 333 333 332 334 336 336 333 331 330 329 328 326 323 322 323 325 324 324 323 324 324 325 325 329 326 324 325 324 328 331 333 334 335
300 300 301 301 301 301 302 303 303 303 303 304 305 306 306 308 307 307 307 308 310 310 310 310 311 312 313 314 316 320 320 320 321 322 325 328 329 329 330 329 329 329 330 330 332 333 333 332 333 333 333 333 333 332 333 334 335 336 335 332 331 329 329 327 325 323 323 325 325 326 326 324 324 325 324 327 328 327 327 322 326 332 330 331 332
299 300 300 300 301 301 302 302 303 302 302 303 304 306 305 307 307 309 308 308 308 309 309 310 311 311 312 313 315 317 317 318 318 319 321 323 328 329 330 330 330 330 330 330 331 333 333 333 333 333 333 333 333 333 333 334 335 335 335 333 332 330 329 328 327 325 324 325 327 326 326 326 325 325 324 323 324 324 323 324 325 327 326 325 326
298 299 300 300 301 301 301 302 302 302 302 303 303 304 305 305 306 307 307 307 307 308 309 309 310 311 312 313 314 315 316 317 319 321 321 321 322 325 328 330 330 331 331 331 331 331 332 332 332 332 332 332 333 333 333 333 333 333 333 332 332 331 329 328 326 325 325 325 326 327 327 327 326 326 325 324 324 324 324 325 326 324 322 321 324
297 298 299 300 300 301 301 301 301 301 302 302 304 304 305 305 307 307 307 307 307 310 309 309 309 310 311 312 312 315 319 319 320 320 320 321 322 323 324 327 330 331 332 332 332 332 331 331 332 332 332 333 333 333 332 332 332 332 331 331 330 333 330 328 327 326 326 325 327 328 327 327 327 326 325 325 325 325 324 324 327 325 322 319 321
296 298 298 299 299 299 300 300 300 301 302 303 306 305 305 305 306 306 307 308 309 310 308 308 309 309 310 311 312 312 313 313 315 316 318 319 321 321 321 323 326 330 332 333 332 332 331 331 331 331 332 332 332 333 332 332 332 331 331 330 329 330 331 330 329 328 327 326 326 328 328 328 327 326 325 325 325 325 325 324 326 325 324 320 320
297 298 298 299 299 301 300 301 301 301 303 304 305 305 305 305 306 306 307 308 309 310 310 310 309 309 310 311 311 312 312 313 314 315 317 318 319 320 321 321 322 324 330 333 333 333 333 334 331 330 331 331 331 331 332 332 331 331 331 330 330 330 329 329 329 329 328 328 326 327 328 327 328 326 325 325 325 326 326 326 325 327 327 323 323
296 297 298 299 299 299 300 300 302 303 304 305 305 305 305 304 307 307 308 309 310 311 312 312 312 311 311 312 311 311 312 313 314 315 316 316 316 316 317 319 320 322 326 330 333 334 333 333 333 332 331 330 330 331 332 331 331 331 331 330 330 330 329 328 329 330 330 330 329 327 327 327 327 327 326 325 326 326 327 327 326 328 329 328 326
296 297 298 298 298 299 300 300 301 302 303 305 305 304 304 305 305 306 308 308 309 310 311 311 312 312 311 310 310 311 312 313 313 313 313 314 316 316 316 317 319 322 321 324 328 332 332 331 332 332 331 331 330 330 331 332 331 331 331 331 331 330 330 329 330 331 332 331 330 329 329 329 329 327 327 326 326 327 328 328 327 327 329 330 329
296 297 297 298 297 298 299 300 301 302 303 304 303 304 304 305 305 306 305 306 307 309 310 310 312 312 311 309 309 310 310 311 312 312 313 313 314 316 316 316 317 318 320 320 322 327 331 331 331 331 331 330 330 330 331 332 332 332 333 333 333 333 332 332 333 332 333 332 331 331 330 331 332 329 328 328 327 327 328 328 328 327 327 329 329
296 296 296 297 298 298 299 300 300 300 301 302 303 304 304 304 304 305 305 306 307 308 308 310 310 311 310 310 309 309 310 311 311 311 312 312 313 314 315 317 316 317 318 319 320 321 326 329 329 329 330 330 330 330 331 332 332 332 334 336 335 334 334 334 333 333 333 333 332 331 331 331 331 332 331 329 328 327 327 328 328 328 327 327 329
295 296 297 297 297 298 299 301 299 300 300 301 302 303 303 303 304 304 305 306 308 308 308 308 307 308 309 309 309 309 309 309 309 310 310 311 312 313 315 315 315 316 318 319 319 320 321 324 327 328 327 328 329 330 331 333 333 334 334 333 332 331 332 333 334 334 334 333 332 331 331 331 331 330 331 331 330 329 328 328 329 329 328 327 327
295 296 297 297 298 298 298 298 299 300 300 301 301 302 303 303 303 304 304 306 308 309 309 309 308 308 308 308 308 308 308 309 308 309 309 310 311 312 314 313 314 315 315 317 319 319 320 320 323 326 327 327 328 328 329 329 330 331 330 329 329 329 329 329 332 334 334 334 333 332 332 331 330 329 329 329 330 330 329 328 328 329 329 328 328
294 295 296 296 296 297 297 298 298 300 301 301 301 301 302 303 303 305 306 307 308 308 308 309 309 308 307 306 307 307 307 308 308 309 309 310 311 311 312 313 314 314 315 316 318 320 319 319 321 323 325 326 326 327 327 328 329 329 330 330 329 329 329 329 331 333 335 334 332 332 332 332 331 329 329 328 328 328 330 329 328 329 329 330 329
294 293 294 295 296 296 296 297 298 301 302 302 301 301 302 303 305 307 307 307 307 307 307 307 307 307 306 305 306 306 306 307 308 308 309 309 310 311 311 312 313 313 313 314 315 316 318 318 319 320 324 326 327 327 327 327 328 329 328 328 328 329 329 330 331 331 331 333 331 332 333 333 331 330 329 329 328 327 328 329 329 329 329 329 329
293 295 294 294 294 295 296 298 300 301 302 302 302 304 305 305 306 307 307 307 306 305 305 305 306 306 305 305 305 306 306 306 307 307 308 309 310 310 311 311 313 313 313 313 314 315 317 317 318 319 319 323 327 328 328 327 327 328 328 328 328 329 329 329 330 330 330 332 333 334 334 333 332 332 331 330 329 328 328 327 329 329 330 329 328
293 293 293 293 294 295 296 298 300 301 301 301 303 304 305 305 305 306 306 306 306 305 305 306 306 305 304 305 305 306 306 307 308 308 309 309 310 310 311 312 313 312 312 312 313 313 314 317 318 319 320 320 322 326 327 328 328 328 328 327 328 328 329 329 329 330 330 331 334 336 335 334 333 333 332 331 330 329 328 327 328 329 329 329 328
292 293 293 293 294 295 296 298 299 300 300 301 303 304 304 304 305 305 304 305 306 305 305 305 304 304 304 305 305 306 308 309 310 311 311 311 310 310 310 311 311 312 314 313 314 314 314 314 315 316 317 319 320 322 326 328 328 328 329 329 329 329 329 329 329 329 331 332 334 336 336 335 335 335 329 328 329 328 330 327 327 328 328 329 329
292 293 293 293 294 295 296 298 298 299 300 302 302 303 303 303 303 303 303 305 306 305 304 303 303 304 304 305 306 308 309 309 310 310 311 312 312 312 311 310 311 311 312 313 313 313 313 314 314 315 316 317 318 319 322 319 319 328 328 329 330 330 330 330 329 329 330 332 334 336 337 336 331 328 325 319 317 317 322 329 329 328 327 328 328
293 293 293 293 294 295 296 296 297 298 300 302 303 303 303 302 302 302 303 305 305 304 303 303 303 304 304 306 307 307 308 308 309 310 311 312 312 313 312 311 311 311 311 312 313 312 312 313 313 314 315 316 317 319 312 307 306 309 323 328 329 329 329 329 329 330 330 332 334 336 336 336 332 328 326 316 313 312 312 314 317 321 325 329 328
293 293 293 293 295 295 295 296 297 298 301 302 302 302 302 301 302 303 304 305 305 304 303 303 304 304 304 306 307 307 307 308 309 310 311 312 314 314 313 313 312 311 312 312 312 312 312 313 313 314 314 315 316 316 306 305 304 304 309 323 328 329 329 330 330 331 331 331 331 333 335 336 335 334 332 329 320 313 310 310 310 310 311 314 319
292 294 295 294 294 295 295 296 296 298 301 303 303 302 301 302 303 304 305 305 304 304 304 304 304 304 304 305 306 307 308 309 310 311 313 315 315 315 314 312 312 312 312 312 312 312 312 312 313 313 313 315 315 310 304 303 303 302 302 309 321 327 328 329 331 331 331 330 329 330 331 333 335 333 334 332 330 327 314 309 311 311 311 310 308
292 293 293 294 294 294 296 296 297 299 303 304 304 303 302 303 304 304 304 304 304 304 304 304 304 305 306 306 307 307 308 309 311 312 314 315 315 314 313 313 313 313 312 312 312 312 312 312 312 312 313 314 315 312 304 303 303 302 301 303 316 321 325 328 329 330 331 330 330 329 329 330 332 334 334 333 331 328 326 323 321 320 321 321 312
292 292 293 294 294 293 293 295 297 301 304 303 301 301 301 301 302 303 304 304 304 304 304 304 304 305 306 307 307 307 308 310 311 312 313 314 314 313 312 313 312 312 312 312 312 312 312 312 312 312 312 313 315 308 304 303 302 302 302 302 314 318 322 325 327 329 330 329 329 330 330 330 330 331 333 332 332 330 328 326 325 324 325 325 326
292 292 294 294 294 294 294 295 300 300 302 301 300 300 300 300 302 303 303 303 303 304 304 304 304 305 306 307 307 307 308 308 309 311 313 313 314 314 313 312 312 311 311 311 311 311 311 311 312 312 312 311 313 305 303 302 302 301 300 310 314 316 319 322 324 326 327 327 328 329 329 327 328 329 325 314 321 331 330 327 326 325 325 326 326
294 294 296 296 295 294 294 298 296 299 302 301 300 300 299 300 301 302 303 303 303 303 303 304 304 305 306 306 307 306 306 307 308 310 312 311 311 311 313 314 311 310 310 309 309 309 311 311 311 312 311 312 312 307 302 302 302 301 302 312 315 316 317 320 322 324 326 327 327 327 327 328 329 330 321 310 307 316 330 328 327 326 326 326 326
296 296 295 295 294 294 296 298 296 298 300 300 299 299 298 299 300 300 301 302 302 302 303 304 304 305 305 305 305 305 305 306 307 309 311 310 309 309 309 312 312 311 309 309 310 310 311 311 311 311 312 312 312 311 304 302 301 301 306 313 315 317 317 319 320 322 324 325 326 326 329 326 327 329 316 308 306 313 327 329 328 326 326 326 326
295 295 294 294 294 295 298 296 296 298 300 299 298 297 298 298 300 300 301 301 302 302 303 303 304 304 305 304 304 305 305 306 306 309 311 308 307 307 307 308 309 311 313 313 312 311 311 312 313 313 317 315 315 313 305 302 302 302 306 313 316 317 318 318 319 320 322 324 325 324 323 322 325 321 305 303 303 312 325 328 328 327 326 325 327
296 296 295 295 296 294 294 295 296 298 300 299 297 297 299 300 299 299 300 301 302 302 303 303 303 304 304 304 304 304 305 305 306 308 309 306 306 305 304 304 305 307 308 309 310 312 312 312 312 313 314 315 315 316 314 305 302 302 301 312 316 317 317 319 319 320 319 322 324 325 322 309 307 308 309 306 302 300 319 327 328 327 326 325 329
294 295 297 294 294 293 293 294 297 299 299 300 298 297 298 297 298 297 298 300 302 303 304 303 303 303 303 303 303 304 304 305 307 308 307 304 303 302 301 301 303 304 304 304 303 305 306 309 310 312 313 314 316 317 315 305 303 302 301 302 312 315 317 319 320 319 320 320 322 323 324 314 306 307 308 305 302 300 305 324 328 328 328 327 323
297 297 295 294 293 293 293 295 297 299 299 298 299 298 297 296 295 296 297 300 301 302 303 303 303 302 303 302 303 303 304 305 306 308 303 301 300 301 300 300 301 302 301 301 301 302 302 303 304 306 306 307 309 309 310 307 303 300 298 298 308 314 316 318 318 320 320 321 321 322 323 317 305 306 306 307 304 302 300 317 326 315 312 309 323
294 294 295 295 293 293 293 294 298 299 298 298 299 297 296 296 295 296 298 299 300 300 301 302 303 302 302 302 302 302 303 304 305 306 302 299 298 298 298 299 299 299 300 299 299 299 300 299 300 301 302 303 305 307 303 305 298 296 297 296 297 304 302 314 317 318 320 321 322 323 323 317 304 303 303 303 303 301 300 306 305 304 304 303 309
294 295 295 295 294 294 294 294 295 296 296 297 298 296 296 295 295 297 297 298 299 299 299 300 301 301 301 302 302 302 302 303 304 304 301 298 297 297 297 297 297 298 298 297 297 298 298 297 298 299 300 301 302 303 302 299 298 295 294 295 295 294 296 306 313 316 320 321 321 321 319 309 303 302 302 302 302 300 305 301 299 300 301 303 314
295 295 295 295 295 295 294 295 294 295 296 297 297 296 295 295 297 298 297 297 298 298 297 298 300 301 301 301 301 301 301 302 303 303 300 298 297 296 295 295 295 295 296 296 296 296 296 296 296 297 297 299 299 300 300 299 296 296 295 294 294 294 293 294 303 309 309 313 309 308 308 305 303 301 300 299 298 299 298 300 299 299 304 310 314
295 295 296 297 295 294 294 295 294 294 295 297 295 295 294 296 297 297 296 297 297 296 296 297 299 300 300 301 300 300 301 301 302 302 302 300 297 296 295 295 294 295 295 295 295 295 295 295 295 295 296 296 297 297 297 298 298 297 296 295 294 294 297 296 299 304 301 299 296 298 301 300 300 301 303 306 308 310 299 297 297 300 307 310 312
294 295 297 297 295 294 295 295 294 294 293 295 294 294 294 296 296 296 296 295 295 295 296 295 295 298 299 300 299 300 299 300 300 301 301 301 299 297 295 294 294 293 294 294 294 294 294 294 294 294 295 295 295 295 295 295 295 295 295 296 296 298 300 297 297 300 300 303 303 302 304 300 302 302 303 304 305 305 303 302 303 306 308 310 311
295 296 295 294 294 294 294 295 295 295 294 295 295 294 295 296 296 296 295 295 295 294 293 293 294 294 296 298 299 297 299 299 299 299 299 299 299 298 296 294 294 294 293 293 294 294 293 293 293 293 294 294 293 294 294 293 293 293 294 294 296 298 302 306 304 304 306 309 310 303 303 306 307 308 308 308 308 310 309 307 309 309 310 311 312
295 295 294 294 295 295 294 295 296 295 294 294 294 294 295 294 295 296 295 294 294 292 293 293 293 294 295 296 298 299 299 299 298 299 299 299 297 298 298 297 297 295 294 294 294 294 294 294 294 293 293 292 292 292 293 292 292 291 292 293 294 297 301 306 307 301 308 309 310 311 310 310 310 310 310 312 312 312 312 312 313 312 311 311 311
295 295 293 295 296 295 294 295 296 295 295 295 294 294 294 295 295 295 295 294 294 293 292 292 293 293 294 295 296 296 298 299 298 298 298 299 296 294 295 298 296 294 292 291 291 293 294 294 294 294 295 292 291 292 292 291 291 291 292 292 292 292 292 294 295 294 302 310 310 310 312 312 312 312 312 312 313 313 314 314 315 307 311 313 311
295 294 294 296 296 297 295 295 295 296 295 295 294 294 294 295 295 295 295 294 293 294 292 291 293 293 293 293 294 295 295 296 297 296 296 296 297 299 294 292 294 294 292 291 291 291 291 291 293 294 294 293 292 291 291 292 291 292 292 292 292 293 292 292 291 294 304 310 311 311 310 311 308 309 309 309 309 309 308 310 313 314 316 313 308
Wind_Speed
4 8 6 6 8 7 5 5 6 5 6 6 6 5 6 5 3 3 2 3 2 1 5 2 5 4 3 2 4 1 1 2 3 1 0 0 1 1 0 1 0 1 2 2 2 3 2 2 4 3 4 4 4 5 5 5 4 5 4 2 2 0 2 3 3 7 7 4 5 3 4 3 1 2 4 6 6 6 6 7 6 6 5 6 5
7 7 6 6 7 7 5 5 5 6 6 6 6 6 5 5 5 5 4 2 1 2 2 4 1 1 3 2 1 3 1 1 3 3 2 1 2 2 3 2 1 2 2 2 1 3 3 2 2 3 3 4 3 3 4 4 2 2 4 1 1 3 2 1 5 7 3 6 6 2 2 3 3 3 1 1 3 4 6 6 6 7 6 6 5
4 4 5 5 6 6 5 4 4 4 5 6 5 5 6 6 4 4 3 5 2 2 2 1 1 1 4 3 3 2 2 2 1 1 2 3 0 3 1 3 3 2 3 3 3 2 3 3 3 3 4 4 3 3 3 4 5 5 4 6 3 0 1 0 5 4 5 2 5 6 2 2 1 1 1 2 2 3 4 5 6 6 7 6 6
5 5 5 4 5 5 4 4 3 4 5 5 5 6 6 7 7 4 4 3 3 2 4 3 3 2 2 5 0 0 1 1 2 1 0 0 2 5 4 3 3 3 3 3 3 4 4 4 3 3 4 5 6 5 3 3 3 4 4 4 4 3 1 2 3 5 5 8 4 2 4 4 2 5 3 1 2 3 5 5 5 6 6 6 5
6 5 4 5 6 5 4 3 4 6 6 6 5 6 5 7 6 6 5 3 4 3 4 5 2 2 1 1 1 2 2 0 1 2 3 3 4 5 5 3 4 4 3 3 3 4 3 4 4 3 3 5 6 6 6 6 4 4 5 5 5 6 4 2 1 4 7 6 7 5 3 1 4 4 4 2 2 3 4 5 5 5 7 7 6
7 6 4 4 5 4 4 5 6 6 6 6 6 7 7 9 9 9 7 6 4 3 1 2 4 2 2 4 1 2 3 2 6 5 5 6 6 3 3 4 4 4 4 4 4 3 4 4 4 5 4 4 5 6 6 5 4 4 4 5 6 5 5 5 3 1 4 8 6 2 7 6 5 2 5 4 0 2 2 4 5 6 6 7 6
4 3 3 4 4 5 4 5 5 7 6 6 8 8 9 9 9 10 9 7 7 3 1 0 2 1 1 3 4 5 3 3 2 3 2 1 1 2 2 4 4 5 5 5 4 4 3 4 5 5 4 3 3 4 5 6 6 6 4 4 5 5 4 5 6 5 1 1 3 3 3 2 9 8 5 3 0 3 3 4 5 6 7 7 7
5 4 3 3 4 5 5 4 5 6 5 7 7 7 8 8 7 8 8 9 8 9 5 0 2 2 3 3 4 6 6 4 2 2 3 4 4 3 3 4 4 5 5 5 5 5 5 5 4 4 3 2 2 4 4 3 3 2 3 4 4 4 6 7 6 5 6 3 4 5 3 2 7 5 8 9 6 5 5 3 3 6 6 7 8
5 5 5 6 7 5 5 6 4 6 5 5 4 4 5 6 7 7 8 8 8 9 9 8 3 0 1 1 2 4 5 5 5 3 3 4 7 6 4 2 3 4 4 5 5 6 6 5 5 5 4 3 2 4 4 5 6 6 5 4 4 5 6 5 5 6 6 6 3 3 2 1 3 1 4 3 4 4 2 5 6 4 6 7 7
5 6 7 6 4 4 4 4 5 4 3 4 4 4 4 4 5 7 7 6 7 8 9 9 9 6 2 2 3 2 1 2 2 3 4 5 6 5 4 3 2 2 3 4 5 6 7 6 6 6 5 5 5 5 5 5 6 7 7 7 6 5 4 5 8 6 7 6 6 6 6 2 2 1 2 3 2 2 5 7 8 9 9 7 7
5 6 6 5 4 4 4 6 4 5 4 4 4 4 4 4 4 5 5 6 5 6 7 8 8 8 6 4 3 3 3 3 2 3 3 4 5 5 5 5 4 4 4 4 6 6 7 7 7 8 7 7 7 7 7 6 6 6 6 5 6 7 6 6 6 5 6 6 6 6 7 7 7 5 6 5 4 3 1 2 4 7 10 7 8
5 7 6 6 6 5 5 5 4 3 3 3 3 3 4 4 4 4 5 6 6 5 6 7 7 7 7 7 5 3 3 3 3 3 3 5 5 6 5 5 5 4 5 5 6 7 7 7 8 8 9 8 8 7 5 5 5 5 5 6 6 7 7 7 7 7 7 7 6 6 7 7 6 6 6 7 8 6 7 6 7 5 4 6 2
6 5 5 4 4 4 4 2 3 4 4 3 3 3 3 4 4 4 5 5 6 6 5 5 6 6 6 7 6 5 4 3 3 4 4 4 4 5 5 6 5 5 5 5 6 7 7 8 8 9 9 9 8 8 8 8 7 6 6 6 6 7 8 8 8 9 8 8 8 7 7 7 7 6 6 7 7 7 7 6 5 6 7 6 4
6 5 4 3 3 2 1 1 1 3 4 4 4 4 3 4 4 4 5 5 4 5 6 5 5 5 6 6 6 5 6 5 4 4 5 5 5 5 5 5 5 6 5 6 4 5 6 7 7 9 9 8 8 8 7 7 7 7 7 8 8 8 6 7 8 8 8 9 6 7 8 7 7 7 7 7 6 6 5 7 5 4 3 3 2
4 4 3 3 2 2 1 0 1 2 3 3 4 4 4 4 4 5 6 7 6 5 5 6 6 5 5 5 6 4 5 6 6 5 4 5 5 5 5 4 5 5 5 5 3 6 6 7 7 7 8 8 9 8 8 8 8 7 7 8 7 6 6 7 6 7 8 8 7 7 7 7 7 7 7 7 7 8 8 7 7 5 2 2 4
4 4 3 1 1 0 0 0 1 2 3 4 4 4 4 4 4 4 5 7 7 6 6 5 6 5 5 5 6 5 5 4 5 6 6 5 6 5 5 5 5 5 5 4 5 5 5 7 7 8 7 8 8 9 9 8 8 8 7 7 8 5 6 6 6 7 8 8 8 7 7 8 7 8 8 8 8 8 7 7 7 8 7 5 3
4 3 3 1 0 1 2 4 5 5 3 3 2 3 3 4 4 4 5 6 7 7 6 6 6 5 5 5 5 5 5 5 5 6 8 7 5 5 5 6 5 5 5 4 5 4 5 6 7 8 7 7 7 7 7 8 8 9 8 8 9 6 6 7 6 7 7 7 7 8 9 8 7 7 7 7 7 7 7 8 8 9 8 7 5
3 3 2 2 4 6 7 7 6 6 3 2 2 2 3 3 4 4 5 7 7 7 7 6 6 5 5 5 5 5 5 5 5 5 6 6 7 5 5 5 5 5 4 5 5 7 6 6 6 7 6 6 7 6 6 7 6 7 8 9 9 7 7 5 5 5 6 6 7 7 7 7 7 7 8 8 7 8 7 7 8 8 8 10 7
4 6 7 8 7 7 7 7 6 7 4 2 3 3 4 4 4 4 5 6 7 7 6 6 6 4 4 5 5 5 5 4 4 4 4 5 6 7 6 6 5 4 5 6 6 6 7 7 6 6 6 7 6 6 6 6 7 8 7 7 6 6 6 7 6 5 4 4 6 8 7 8 7 8 7 7 7 7 7 7 7 7 7 9 9
5 6 6 6 5 5 5 5 6 6 6 5 4 4 5 5 4 4 5 6 6 7 7 7 7 5 6 5 6 5 5 5 5 5 5 5 5 6 6 6 7 5 4 5 6 6 7 7 7 8 8 6 7 7 7 8 8 9 8 8 7 7 7 7 6 5 4 4 6 9 9 8 7 6 7 8 8 8 7 7 7 8 8 9 8
6 5 4 4 4 4 5 4 5 5 5 6 6 4 5 4 4 5 4 5 6 7 7 7 6 6 5 5 6 6 6 5 5 5 4 5 5 5 6 6 5 5 5 5 5 6 6 7 8 8 9 10 9 9 8 9 9 9 9 9 8 9 9 6 4 4 5 6 7 9 9 9 7 8 8 8 8 8 7 7 7 7 8 8 8
4 3 3 3 4 4 4 4 4 4 4 6 7 3 5 5 4 4 4 4 5 6 6 6 5 5 6 6 6 5 4 4 5 5 5 5 5 6 6 6 5 5 5 7 7 6 5 6 7 8 9 9 9 9 8 10 12 11 10 8 8 8 7 5 4 5 6 6 7 8 9 8 6 9 9 9 9 8 7 8 7 8 8 8 9
4 4 3 2 1 1 2 2 3 3 3 3 4 3 4 4 5 4 4 6 7 6 5 4 4 5 6 6 6 5 5 5 5 5 6 6 5 5 5 6 7 6 5 6 8 7 6 6 7 8 8 8 9 10 9 9 9 10 10 8 6 6 7 8 8 8 8 7 7 8 9 8 5 7 8 8 8 9 8 9 10 8 8 9 9
3 2 0 0 1 2 2 3 3 3 4 4 3 3 3 4 4 4 6 7 7 7 6 6 6 6 5 5 6 6 6 6 6 5 6 6 6 6 6 6 7 6 6 6 7 8 7 7 7 7 7 8 8 7 7 7 7 6 6 6 6 6 6 6 6 7 7 7 9 9 9 8 8 9 9 8 7 7 8 9 10 8 8 8 8
2 0 0 1 4 4 3 3 3 3 3 4 4 4 4 4 4 5 6 6 6 6 7 7 6 6 6 6 6 6 6 6 6 6 7 7 7 7 6 7 7 7 7 6 6 6 7 7 7 7 7 8 8 7 6 6 6 6 6 6 7 7 7 5 5 6 7 6 7 10 10 9 9 10 10 10 9 8 8 8 9 9 8 8 6
0 1 1 4 2 3 3 4 3 4 4 4 4 4 4 4 5 5 6 6 6 5 6 6 7 7 6 6 6 6 6 7 7 7 8 8 8 7 7 7 7 8 8 7 7 7 7 8 8 7 6 7 8 8 7 7 6 6 6 6 6 7 7 8 9 10 9 8 10 12 12 10 10 11 12 11 10 11 10 10 10 9 9 7 8
1 1 2 2 4 4 4 4 4 4 4 4 4 6 6 5 6 6 6 6 6 5 6 6 6 6 6 6 7 7 7 7 7 8 7 8 8 8 8 8 7 8 8 7 7 7 7 7 9 8 7 6 7 8 8 7 7 7 7 7 8 9 8 8 9 11 10 11 12 12 13 12 11 12 12 12 11 11 11 12 12 11 10 8 8
1 3 3 3 3 4 4 4 5 5 5 5 5 6 7 6 7 6 7 7 5 5 6 6 6 7 7 8 7 7 7 8 8 7 7 7 8 8 9 9 8 8 8 8 8 8 8 7 7 8 7 6 6 7 7 8 7 8 8 8 9 10 10 10 10 11 11 11 11 12 12 13 12 12 12 12 12 12 10 11 11 10 10 10 10
2 1 2 3 4 4 4 4 5 5 5 5 7 7 6 5 5 6 6 7 7 5 6 7 7 7 8 8 8 7 7 8 8 9 9 9 8 8 8 9 9 8 8 8 7 7 8 8 7 8 8 8 7 6 5 6 8 8 8 9 10 11 11 11 11 11 12 12 12 11 12 12 14 15 17 15 14 13 11 11 11 10 11 11 11
1 1 2 2 3 4 4 5 5 6 5 6 7 7 7 7 6 6 6 7 7 6 5 6 7 7 8 7 8 8 8 9 10 10 11 10 10 9 8 8 9 9 9 8 8 8 8 8 8 7 7 7 7 6 7 11 11 9 8 8 9 10 11 11 11 11 12 12 12 12 12 18 19 19 18 18 18 18 18 15 12 11 12 11 11
1 1 1 2 4 3 4 4 5 6 5 6 6 6 6 6 6 6 7 7 7 7 6 5 7 6 7 8 8 8 9 10 10 10 11 11 12 10 8 8 8 8 9 9 8 8 8 8 8 8 8 7 7 6 11 11 12 15 12 10 9 10 11 12 12 12 12 13 13 14 13 15 16 17 17 18 18 19 19 19 19 18 15 14 11
0 0 1 3 3 3 4 5 5 6 5 6 6 6 6 7 7 8 8 8 7 7 8 7 6 7 8 9 8 9 10 11 11 12 12 12 11 10 9 9 8 8 8 8 8 9 8 8 7 8 8 8 8 10 12 13 13 13 13 11 10 10 10 11 12 13 13 12 12 12 12 10 11 13 13 13 15 18 19 19 20 19 18 20 19
1 1 1 3 3 3 4 5 4 5 5 6 6 6 7 8 8 8 7 7 7 7 8 8 8 8 9 9 10 10 11 11 11 12 12 11 10 9 8 8 9 9 8 8 9 9 9 9 8 9 9 9 8 11 13 14 14 14 14 13 10 11 11 12 12 13 12 13 12 12 12 10 10 16 15 12 11 12 16 19 19 19 18 19 20
2 2 3 3 2 3 4 4 4 5 5 5 5 6 7 7 7 8 7 7 8 8 8 8 9 9 9 10 10 10 10 11 11 12 12 12 10 8 7 7 7 7 8 9 9 10 9 9 9 9 9 8 8 9 13 14 14 14 14 12 9 11 12 12 12 12 12 13 13 12 12 12 12 11 11 11 11 10 9 9 10 10 10 13 15
3 2 3 2 3 4 4 5 5 5 4 4 6 5 6 6 7 7 7 7 8 7 8 8 9 9 9 9 10 9 10 11 11 11 11 11 11 9 8 5 6 7 7 8 9 9 9 9 9 9 8 9 8 12 13 14 14 15 15 11 8 9 11 12 12 12 12 11 11 11 12 13 13 12 11 12 12 12 10 9 9 11 11 11 12
4 3 0 2 4 4 4 5 5 5 4 3 5 5 5 7 7 6 6 7 7 7 7 8 8 8 9 9 9 9 11 11 11 11 11 11 11 10 9 8 7 6 5 5 6 7 8 9 9 9 9 9 9 13 15 14 14 14 13 8 7 9 10 10 11 11 9 9 11 12 10 9 12 13 15 17 16 12 11 11 11 10 9 9 10
3 3 0 1 2 3 4 4 5 6 4 4 5 5 5 6 7 6 6 7 7 7 8 8 8 9 10 10 9 10 11 11 12 12 11 11 11 12 10 8 7 6 6 6 6 6 6 7 8 9 9 10 9 11 15 16 16 16 10 7 7 8 9 9 11 10 9 8 9 10 11 10 11 13 16 16 17 15 12 12 12 13 12 11 11
3 1 2 3 3 3 4 4 5 6 4 4 4 5 5 6 7 6 6 7 7 8 8 8 8 9 9 10 10 10 10 10 10 11 11 11 11 9 10 10 8 7 6 6 6 7 6 6 7 8 9 9 9 11 14 15 16 16 12 8 8 9 10 9 11 11 10 9 11 16 15 13 14 14 16 16 17 14 13 13 12 12 13 13 12
3 2 3 1 2 2 3 5 7 6 6 4 5 4 5 6 7 7 6 6 7 8 8 9 8 9 9 9 9 9 9 9 9 10 9 11 10 10 10 10 9 9 8 6 5 5 6 6 6 6 10 10 8 10 13 14 15 16 13 8 8 8 11 9 9 10 10 10 10 13 19 18 15 11 10 12 13 12 12 13 13 12 13 14 12
2 0 1 1 2 2 5 6 7 7 5 4 4 4 5 5 7 6 6 6 6 6 6 7 7 7 7 8 8 9 9 8 9 8 8 10 10 10 11 10 10 8 8 9 9 7 6 6 5 6 7 7 7 9 11 14 14 16 16 10 7 8 10 11 9 9 9 9 11 10 13 19 21 21 20 13 9 12 12 11 11 11 12 13 10
4 2 0 1 2 3 4 5 4 5 5 3 3 3 5 5 5 6 7 7 5 5 6 6 7 7 7 8 7 8 9 9 8 7 9 9 9 9 9 10 10 9 9 10 10 9 10 10 9 8 7 7 7 9 11 14 15 16 15 11 8 10 10 9 8 9 10 10 11 12 12 16 21 23 22 17 14 16 17 14 13 12 13 13 11
3 5 4 0 2 4 4 6 5 5 6 3 2 4 5 5 5 6 6 6 5 4 5 6 6 7 7 7 7 8 7 7 8 7 9 8 8 8 8 9 8 9 11 11 11 10 9 9 9 9 10 10 12 16 12 16 15 13 11 12 9 10 11 9 10 10 10 10 11 12 13 16 21 23 24 22 21 18 21 15 16 19 17 14 12
2 2 1 2 3 2 3 4 5 4 5 3 1 4 5 5 5 6 5 5 5 4 5 5 6 7 7 7 7 8 8 7 7 8 8 8 8 8 9 9 10 10 10 10 11 10 10 10 9 8 8 9 10 10 14 11 19 19 16 9 13 12 11 9 11 12 12 11 11 12 13 18 18 20 20 21 20 19 12 12 18 13 11 14 13
1 1 3 4 2 0 1 5 4 4 4 5 1 3 5 5 7 5 4 4 5 4 4 4 5 6 7 7 7 7 8 8 8 7 7 7 9 8 8 9 9 9 9 9 9 9 9 9 10 9 9 8 9 9 11 14 15 17 17 18 12 12 12 9 8 8 9 10 11 11 12 18 18 19 20 20 19 15 12 17 17 17 16 12 7
2 1 2 2 2 1 1 4 4 4 4 4 2 2 5 6 7 5 4 4 4 5 4 4 5 6 6 6 6 6 7 7 7 6 5 6 7 8 8 8 8 8 8 8 8 8 8 8 9 9 9 9 9 10 10 12 15 14 15 15 14 12 10 11 8 8 5 7 11 16 19 19 20 19 19 18 15 17 20 17 16 16 14 6 7
1 1 1 2 1 1 1 1 4 4 4 3 4 2 3 5 5 5 3 2 3 4 4 4 4 4 5 5 6 6 5 6 6 5 5 3 4 7 7 7 7 8 8 8 8 9 9 8 7 8 9 9 9 9 10 11 12 15 14 14 14 13 11 10 13 11 12 16 14 14 17 17 17 16 11 10 10 12 15 16 15 11 6 7 7
3 2 1 1 1 1 1 1 3 4 4 3 4 4 3 4 4 4 3 2 4 4 4 4 4 4 3 4 5 5 5 5 5 5 4 4 4 4 6 7 7 7 8 7 7 8 9 9 8 8 8 9 9 10 11 11 11 12 11 12 11 10 9 5 6 7 9 10 11 9 8 12 12 16 16 12 10 8 6 5 6 6 8 7 8
3 3 2 1 1 1 1 0 2 4 4 4 3 4 4 4 4 4 2 3 4 4 4 4 4 4 3 2 3 5 5 4 5 5 5 5 5 4 5 6 7 7 7 8 6 8 9 9 9 9 9 9 9 10 10 12 13 11 10 9 8 8 7 5 5 6 7 7 6 2 3 2 3 2 5 3 4 5 6 5 4 5 7 8 8
4 3 2 2 0 0 2 1 1 3 3 4 3 4 4 4 4 3 2 4 4 4 4 4 5 5 5 3 3 2 3 4 4 4 4 3 2 4 3 2 2 2 4 6 6 5 6 6 7 8 10 10 9 11 12 14 14 15 12 11 11 8 6 6 6 6 6 5 3 3 3 4 5 6 5 6 6 5 4 3 5 3 3 3 3
4 4 3 2 0 1 0 2 1 2 2 3 4 4 4 3 3 3 2 3 3 4 4 5 4 5 5 6 5 4 4 3 4 5 5 5 1 4 2 0 1 4 4 3 3 5 4 5 7 7 7 9 11 11 17 19 18 16 17 16 12 13 13 11 11 10 6 4 5 5 6 6 7 4 4 5 4 4 4 5 5 5 5 5 5
4 4 1 1 0 0 1 1 1 1 2 1 2 3 3 3 3 3 2 2 1 3 3 4 4 5 5 5 5 6 5 4 4 4 5 5 6 5 2 6 4 4 4 8 10 9 8 7 6 7 8 11 14 18 20 20 19 18 21 20 20 13 6 8 8 5 5 4 3 4 6 6 2 3 3 3 3 1 1 4 5 5 6 7 6
Wind_Direction
74 73 69 65 59 54 37 30 22 22 9 357 355 355 357 348 5 11 4 359 37 40 109 351 101 74 6 66 118 324 181 127 112 113 75 224 158 138 105 108 180 242 254 176 155 146 137 150 136 139 137 155 170 188 179 188 187 171 163 144 150 92 324 89 120 124 119 58 29 37 52 30 96 142 159 157 160 159 154 156 157 161 164 170 182
78 69 57 56 58 53 45 31 30 25 1 12 357 338 342 354 11 345 355 89 42 21 9 99 3 102 152 187 163 163 290 188 165 182 185 202 237 204 161 155 160 222 224 225 177 156 151 162 154 148 142 141 167 181 169 171 166 207 150 143 94 171 222 194 146 113 115 151 138 124 24 39 56 61 84 162 143 148 154 155 160 168 169 174 173
83 91 75 67 60 59 53 30 22 23 8 9 358 360 354 351 352 5 6 352 39 102 87 42 57 45 316 178 171 141 218 241 304 236 167 164 204 287 207 157 163 170 237 203 204 187 164 170 189 148 150 150 133 133 147 163 174 176 183 174 206 165 148 204 174 154 156 142 135 106 152 113 352 28 15 119 148 143 148 157 163 169 175 172 174
103 97 86 66 70 73 55 39 11 16 9 3 2 1 357 3 350 353 5 7 358 49 121 63 24 38 7 331 281 133 239 181 206 251 321 65 217 224 217 170 171 179 202 229 204 185 183 184 189 177 160 163 164 167 171 157 156 160 170 189 155 204 147 221 196 162 128 135 159 182 164 121 119 255 198 236 140 153 159 167 165 174 173 172 171
113 91 84 80 80 87 105 72 39 30 13 5 354 359 -0 358 353 346 342 5 1 24 102 125 39 18 65 227 114 16 354 0 154 245 203 198 206 213 215 176 172 179 200 219 220 195 189 186 195 201 179 169 169 178 184 186 185 174 173 168 180 181 211 170 215 180 154 172 139 111 65 131 206 206 137 283 169 177 189 176 181 173 175 182 184
123 128 134 127 105 91 67 52 55 41 31 17 16 9 10 6 2 358 350 347 7 12 8 95 128 124 32 348 260 210 231 209 198 200 197 192 209 182 171 184 184 171 182 207 229 207 191 197 201 204 201 190 179 184 189 183 175 166 180 176 190 201 192 163 200 263 202 187 191 234 172 169 169 199 136 237 324 237 192 192 190 187 179 182 190
94 111 120 95 85 78 59 58 51 49 29 27 24 18 18 15 7 5 5 360 349 19 36 20 27 58 131 199 264 305 281 271 329 335 307 254 155 215 195 187 188 182 189 199 207 215 200 199 207 212 208 198 192 175 184 189 188 186 176 163 199 190 183 210 190 214 84 286 190 237 292 111 135 130 195 97 201 276 226 203 199 191 183 190 192
141 136 98 73 68 82 84 62 54 52 43 37 32 26 16 10 14 6 2 1 5 355 351 55 142 215 204 226 190 213 277 288 335 326 313 304 293 242 189 196 185 182 186 200 207 212 205 205 205 208 200 188 181 189 197 198 191 203 179 195 191 182 182 199 220 185 176 236 180 198 268 95 156 149 150 174 162 172 226 218 225 191 191 196 199
118 94 84 82 79 77 76 62 53 55 48 49 45 31 24 9 6 6 6 358 352 357 4 351 332 189 225 234 201 198 228 238 282 305 298 297 287 287 280 235 173 171 181 195 205 210 214 204 198 203 201 198 179 179 186 180 190 196 198 193 198 204 185 201 205 206 181 201 152 224 206 193 183 165 149 96 136 151 212 195 203 188 197 206 202
63 81 87 83 82 73 72 74 52 42 28 42 34 31 23 12 5 3 358 353 347 354 355 353 354 339 329 297 302 305 291 261 217 252 257 261 268 283 291 289 277 237 199 197 205 212 208 200 195 202 203 198 197 203 202 197 196 199 198 194 194 205 214 197 201 215 191 199 190 180 189 134 76 66 119 141 65 130 166 197 200 189 199 206 195
80 70 69 77 75 78 60 57 43 26 21 28 15 7 360 10 0 2 341 341 353 351 350 348 346 349 329 317 300 297 306 302 295 263 256 261 260 261 249 242 221 222 207 207 205 206 211 200 198 198 199 203 203 203 209 206 203 200 207 201 192 193 202 210 223 221 197 198 196 186 193 184 182 172 186 180 159 146 109 217 202 207 210 201 207
67 73 75 70 61 49 54 50 34 4 11 4 353 358 349 347 1 358 341 339 335 340 349 341 343 336 340 335 307 285 286 288 280 261 222 229 240 251 244 237 235 220 204 198 199 202 205 208 203 201 201 200 204 201 204 214 212 203 201 200 205 201 194 192 205 218 210 206 202 195 202 197 199 187 181 176 178 182 177 186 191 193 225 228 175
79 80 82 79 87 81 64 37 10 1 348 339 350 359 348 344 347 352 329 326 325 327 336 333 334 330 328 329 325 307 287 275 274 281 278 258 225 234 244 241 234 239 230 214 196 192 204 207 204 204 209 208 201 193 204 207 211 209 205 204 206 203 200 192 195 210 206 206 208 201 203 205 204 203 174 179 191 171 174 169 209 177 193 208 200
111 110 113 112 106 89 75 32 2 340 344 335 347 14 356 342 332 331 314 313 314 321 323 328 322 318 320 320 315 316 308 292 282 271 281 286 287 272 256 256 253 243 247 239 203 182 202 219 220 217 212 204 198 199 200 204 204 204 201 201 203 204 196 198 204 207 206 213 208 205 208 210 210 195 187 168 168 154 172 180 171 198 204 195 168
112 106 104 107 105 138 145 154 353 334 327 338 358 9 2 349 332 325 318 314 315 310 313 315 312 313 316 316 311 309 304 294 280 275 270 281 284 282 280 272 266 271 258 261 211 198 202 209 228 231 222 213 205 199 199 202 204 205 206 205 202 192 190 189 206 205 209 208 208 211 212 212 210 202 186 192 173 181 171 173 155 162 234 206 211
89 105 113 133 162 197 246 301 348 341 335 357 6 358 4 342 331 321 313 303 307 310 307 301 298 301 305 311 306 304 304 305 297 293 285 266 273 276 280 283 281 279 275 261 245 220 210 211 218 230 234 229 219 208 202 201 204 206 212 210 214 200 193 195 198 198 216 211 209 207 204 221 211 206 198 197 192 186 181 167 174 176 175 228 213
116 132 139 171 258 306 349 355 349 351 1 20 4 343 344 334 320 327 324 324 325 316 302 299 297 302 302 305 306 307 305 299 291 289 286 284 278 279 284 284 293 293 286 279 263 230 222 218 218 224 228 233 235 224 214 213 206 205 207 210 220 212 200 205 199 201 214 213 213 205 207 210 213 211 210 204 197 191 188 181 185 189 187 196 190
162 150 145 75 26 13 358 356 352 343 348 21 352 325 329 317 296 336 336 339 329 324 319 311 307 305 302 303 303 299 298 296 293 288 290 294 292 287 287 295 287 287 286 282 280 269 246 227 221 228 226 224 232 233 220 214 216 224 218 214 215 196 203 209 211 213 220 215 219 214 208 213 207 205 214 208 201 198 193 189 195 203 185 200 195
40 42 41 31 26 18 11 3 353 355 348 342 317 328 336 326 312 355 340 335 330 328 322 315 304 295 288 294 297 302 302 297 291 287 289 285 287 289 286 276 283 284 290 292 282 271 266 261 240 227 221 228 228 231 227 222 214 222 223 224 219 202 199 207 211 206 225 223 232 226 216 218 204 210 213 212 212 199 201 191 199 196 197 203 197
46 53 43 36 28 18 13 5 358 350 346 335 318 335 341 322 333 352 342 332 331 331 328 325 322 315 313 313 310 303 298 296 296 298 296 287 282 289 287 286 275 272 265 270 275 270 258 251 253 254 248 235 224 222 219 223 221 223 220 217 214 208 208 209 209 201 211 217 235 239 228 220 210 208 214 213 211 208 200 196 195 196 203 205 195
71 70 58 43 27 10 4 355 351 348 345 345 336 338 328 324 337 347 337 319 325 325 325 326 326 324 321 316 309 311 309 306 308 304 296 291 285 279 281 271 278 274 265 258 252 248 248 243 238 235 237 238 236 228 216 216 218 220 220 218 206 201 206 206 194 212 214 222 225 233 234 227 207 206 214 215 214 211 204 206 196 192 204 204 194
105 110 88 44 26 0 349 347 336 349 342 343 339 340 344 333 317 330 318 309 315 314 311 310 315 310 314 310 305 303 297 303 305 307 302 295 291 287 283 290 276 267 260 260 256 250 240 236 234 235 233 231 229 221 205 204 212 216 213 206 204 197 196 195 186 214 220 221 224 226 232 226 208 212 213 215 214 213 207 209 207 194 202 207 203
116 90 67 43 349 319 313 320 324 329 322 332 334 337 328 315 311 319 316 324 319 305 295 289 292 300 300 302 304 303 304 304 305 300 299 296 292 288 286 284 284 272 259 255 260 255 248 245 236 232 232 229 223 218 211 207 208 208 208 200 185 188 189 190 197 212 222 224 229 229 231 226 209 216 220 219 214 215 211 213 215 201 203 206 203
73 74 180 253 308 332 337 336 328 328 329 328 307 306 305 303 311 310 324 319 313 312 310 310 309 303 298 299 299 298 301 301 299 297 294 294 290 288 285 281 279 276 266 258 256 259 255 249 249 246 240 241 240 227 206 199 205 198 199 207 212 223 228 223 218 216 220 228 234 237 237 227 219 220 221 220 217 216 213 217 221 215 209 206 200
66 27 268 4 20 348 329 307 318 328 324 320 314 304 309 315 314 319 311 306 306 310 309 307 305 302 298 294 292 293 294 293 292 290 287 285 285 283 282 281 279 277 272 263 262 258 258 255 253 252 255 256 254 244 229 214 206 206 211 213 216 225 232 227 229 233 232 229 245 249 243 232 223 224 228 226 219 215 218 217 222 223 217 217 206
228 240 8 27 328 318 319 316 316 335 335 329 314 309 314 315 311 310 306 304 303 301 299 302 302 299 293 289 288 288 287 286 286 286 284 285 281 276 273 274 271 270 270 264 261 258 255 256 255 254 250 256 258 257 247 237 222 202 202 210 217 223 225 226 224 225 220 216 230 241 245 235 226 223 226 226 223 222 219 221 224 224 221 218 217
202 71 30 4 357 319 309 317 333 342 334 326 333 333 328 325 321 319 313 305 301 298 295 298 300 298 299 298 294 290 287 283 279 273 272 274 276 277 274 269 266 265 266 266 263 263 256 253 256 255 250 248 254 254 253 243 237 226 210 209 213 223 225 224 233 237 228 223 224 230 238 236 230 226 226 224 222 223 221 224 223 223 221 217 219
17 25 20 6 325 305 321 328 345 341 325 327 338 331 330 326 326 325 321 315 303 299 299 304 311 309 306 302 297 292 287 282 277 271 264 261 262 266 269 268 265 262 262 262 263 262 262 257 256 257 257 253 252 257 251 252 237 227 223 216 218 222 224 221 224 233 234 234 235 231 230 234 233 230 226 226 220 222 220 226 224 221 220 217 221
38 356 6 353 321 305 327 337 337 328 326 331 338 331 329 326 324 324 319 315 312 304 309 314 313 308 302 298 295 293 287 287 289 288 283 275 266 260 261 263 262 262 256 253 254 255 259 261 258 256 259 259 258 256 256 250 254 241 225 228 222 223 225 224 223 228 233 233 235 235 232 232 233 234 228 225 223 217 216 222 224 218 220 219 220
65 8 347 309 296 302 331 334 327 324 320 336 336 334 334 332 328 320 318 314 318 315 312 312 308 304 300 297 298 300 306 306 301 297 294 289 281 270 259 256 255 255 257 254 253 254 256 256 258 258 256 256 256 256 255 250 245 249 243 236 234 229 227 227 229 228 231 232 234 236 235 231 231 232 230 227 225 222 218 217 218 213 217 219 221
29 341 323 295 292 306 329 332 321 320 319 333 331 329 324 326 318 321 321 320 323 324 318 309 307 305 306 310 315 317 312 306 301 296 294 290 285 278 265 256 253 252 253 257 254 253 252 252 252 253 254 252 250 248 252 254 246 246 247 247 237 235 229 229 229 229 228 228 227 227 230 233 232 231 232 229 226 224 221 223 222 215 211 211 218
175 269 283 291 287 323 321 323 322 318 317 329 333 325 321 321 324 327 327 326 330 329 326 321 321 321 318 320 318 313 311 307 305 301 297 293 286 278 267 258 255 253 252 252 257 255 254 251 250 250 250 249 250 246 238 246 247 245 245 247 246 240 235 232 231 227 227 227 226 228 229 230 230 229 230 231 230 228 224 222 224 225 220 216 213
214 227 248 263 282 304 303 311 320 314 307 321 325 325 322 320 325 326 325 333 334 335 332 327 325 323 321 322 322 316 310 307 307 304 302 299 295 281 266 255 247 247 250 248 249 253 253 251 247 249 251 248 247 245 241 239 245 244 242 241 250 247 243 238 230 226 223 225 224 226 231 230 230 227 229 230 229 232 232 230 231 231 229 224 222
224 226 233 260 309 313 305 299 302 297 287 303 321 320 314 314 315 319 328 333 334 332 331 326 324 325 326 323 315 312 312 313 313 312 311 310 312 302 273 253 250 246 242 246 247 248 250 249 247 242 245 248 248 245 243 242 243 244 242 237 242 243 243 242 235 228 223 224 222 220 225 230 230 228 225 222 223 226 223 225 231 233 233 241 244
195 229 256 299 332 317 307 318 320 308 291 316 319 314 313 316 319 321 327 333 333 329 328 329 325 323 323 321 319 317 319 320 318 318 320 325 322 319 312 283 248 237 232 233 236 241 245 246 248 247 246 248 251 246 245 245 246 247 249 240 239 242 240 237 235 234 229 220 225 227 228 230 231 231 230 217 219 222 222 224 225 227 227 228 226
197 196 220 6 342 304 295 298 306 308 296 317 308 311 322 317 319 315 326 332 331 329 328 330 327 326 326 327 326 330 329 325 324 323 330 338 339 328 320 315 302 280 256 235 230 224 234 240 244 248 249 251 249 246 247 247 245 246 244 246 237 240 236 235 238 240 235 226 225 228 231 239 245 239 238 224 216 218 223 226 227 234 236 233 233
183 188 123 6 310 288 287 294 315 309 303 307 305 318 322 322 320 318 326 337 337 337 337 334 335 336 338 335 338 338 331 326 329 327 338 346 351 347 340 328 314 307 290 272 254 235 226 229 236 240 245 252 253 245 244 246 246 246 238 233 237 241 241 229 230 228 228 220 218 216 220 230 243 248 243 227 218 209 224 224 228 234 236 236 239
161 227 17 15 319 300 305 325 323 321 316 290 310 323 330 325 318 317 324 344 346 347 343 339 344 345 341 343 341 336 328 328 328 327 340 347 351 354 354 345 337 317 302 286 277 272 262 244 241 245 243 250 254 247 241 243 244 246 232 223 220 233 240 231 231 226 222 221 218 216 216 225 235 239 247 233 222 207 218 221 225 232 237 240 243
146 94 59 332 284 277 346 337 343 336 324 302 314 329 334 323 318 318 319 348 351 352 351 347 346 344 347 345 338 332 329 327 326 324 346 352 353 351 348 350 352 350 339 311 282 274 281 279 268 265 262 261 266 264 254 248 246 243 238 227 221 223 242 230 223 228 222 218 222 222 221 222 227 247 305 294 255 219 220 221 220 224 231 236 237
164 169 162 213 260 18 11 350 348 334 319 295 313 331 326 322 318 317 326 351 347 353 344 341 342 344 348 345 336 336 331 329 326 329 2 359 352 354 356 352 351 356 357 6 2 339 310 290 292 286 289 285 288 285 277 270 255 250 241 231 218 223 230 236 222 221 218 216 221 224 228 223 226 231 233 231 223 218 231 232 224 223 226 234 234
156 144 151 30 324 35 350 340 346 330 323 293 317 340 322 315 321 327 327 338 333 336 343 341 344 350 349 344 337 337 332 328 338 350 18 2 358 355 353 357 356 357 5 11 11 7 4 358 348 340 321 313 298 297 292 277 262 251 241 215 231 226 230 230 227 221 220 216 214 224 232 217 212 221 224 217 207 204 210 220 219 224 221 223 225
163 159 140 76 357 23 347 347 353 345 328 296 313 321 315 310 332 326 316 321 328 336 335 343 351 352 348 346 343 343 337 344 351 16 21 6 357 357 358 1 2 5 10 11 8 8 4 356 355 356 356 351 346 344 337 322 302 268 249 225 228 234 225 227 233 230 226 220 214 216 222 221 208 205 206 211 215 212 212 211 220 219 216 213 224
94 77 153 134 57 356 327 332 340 352 335 319 311 315 306 318 329 316 314 325 323 332 333 339 353 355 354 352 353 350 354 357 4 29 25 11 360 2 4 5 8 10 11 12 10 6 1 354 351 354 353 347 342 339 329 350 359 353 335 276 227 232 245 242 233 234 230 225 222 214 219 220 206 203 202 208 215 218 217 221 232 238 230 225 226
236 201 181 140 110 281 340 339 337 346 345 341 272 315 311 324 317 310 330 330 336 331 332 334 349 2 358 0 1 1 7 5 10 26 28 19 12 8 10 10 9 9 8 9 7 3 360 358 353 345 347 346 340 342 342 356 349 342 340 340 317 250 236 224 242 264 255 238 227 223 218 212 207 209 211 213 220 215 213 220 217 221 227 229 232
180 161 230 155 140 242 52 347 327 334 357 354 339 284 311 326 319 330 335 340 338 340 343 341 346 4 2 360 4 7 12 11 11 13 23 21 16 14 17 13 13 13 13 12 5 359 359 349 347 344 341 341 341 340 338 340 338 332 333 329 329 314 257 236 235 233 258 286 276 249 218 210 210 212 213 214 216 216 218 219 213 215 217 200 213
156 123 227 199 155 235 97 326 317 325 334 1 4 342 299 310 313 337 345 353 359 353 350 344 336 348 0 358 9 7 11 10 8 11 14 21 30 21 23 16 18 19 15 13 4 1 358 351 344 343 340 337 338 338 337 336 335 332 327 322 317 306 282 242 229 241 230 237 255 265 238 214 206 204 201 203 214 220 221 218 218 211 190 206 204
150 186 170 165 214 344 19 324 306 311 313 332 22 339 298 307 336 357 18 16 14 5 345 347 334 318 333 358 10 9 3 8 5 2 9 12 20 30 25 24 22 19 19 11 5 4 358 354 350 346 342 340 338 341 339 335 337 330 321 314 317 314 296 255 236 237 241 247 252 238 209 216 211 205 202 209 215 210 200 204 182 189 201 204 206
183 178 162 113 59 338 340 171 313 302 316 325 17 345 323 332 351 1 35 35 17 0 344 341 340 314 306 327 355 352 2 4 0 360 3 4 7 17 28 31 25 21 19 13 4 10 5 355 347 346 344 343 344 343 339 336 330 325 312 306 296 301 294 267 244 244 242 247 242 224 239 257 255 251 230 218 206 194 195 175 171 181 197 204 209
159 193 153 126 174 353 328 77 304 300 319 330 347 337 330 347 344 346 41 53 16 353 345 349 343 340 334 320 319 330 334 347 346 353 354 342 345 351 7 30 21 17 16 18 7 358 354 344 345 348 352 349 346 345 341 325 317 312 306 295 294 291 292 290 271 244 239 227 221 213 199 217 214 221 217 218 205 185 160 162 154 143 162 180 198
184 162 173 158 185 142 286 102 266 281 318 337 336 332 320 339 353 356 36 55 17 -0 352 345 340 343 341 342 341 339 329 330 342 343 348 350 334 191 233 341 318 334 8 9 27 19 346 349 355 2 3 -0 349 332 327 338 335 337 346 340 311 275 264 260 266 268 232 221 208 217 220 218 224 235 258 256 226 185 161 163 168 167 175 185 198
162 149 174 144 233 136 259 104 291 300 302 307 320 327 318 334 357 4 49 63 23 8 341 335 340 334 335 341 342 349 344 340 337 344 346 349 346 352 221 210 225 264 316 352 10 10 5 5 13 5 356 356 346 345 351 351 350 357 0 352 349 342 313 276 260 216 216 230 242 226 236 224 166 73 53 1 317 308 230 156 155 172 182 194 197